919  
ASUS41 KALY 260010  
RWRALY  
 
NEW YORK STATE HOURLY WEATHER ROUNDUP  
NATIONAL WEATHER SERVICE ALBANY NY  
800 PM EDT TUE SEP 25 2018  
 
NOTE: "FAIR" INDICATES FEW OR NO CLOUDS BELOW 12,000 FEET WITH NO  
SIGNIFICANT WEATHER AND/OR NO S TO VISIBILITY
.  
 
NYZ032-033-038>043-046>054-057>066-NYZ062>081-082-084-260100-  
EAST  
 
 
CITY SKY/WX TMP DP RH WIND PRES REMARKS
 
ALBANY CLOUDY 57 55 93 CALM 30.16F FOG  
GLENS FALLS LGT RAIN 55 55 100 CALM 30.16F FOG  
POUGHKEEPSIE CLOUDY 59 57 93 CALM 30.16S FOG  
NEWBURGH CLOUDY 59 59 100 CALM 30.19S FOG  
MONTGOMERY N/A N/A N/A N/A MISG 30.17S  
WHITE PLAINS CLOUDY 67 66 97 CALM 30.17F  
ISLIP LGT RAIN 72 72 100 S17G30 30.16S  
NEW YORK CITY LGT RAIN 74 71 91 SW8 30.16S  
CENTRAL PARK LGT RAIN 70 69 97 SW5 30.20R FOG  

 
 
NYZ005>009-017-018-044>046-055-056-260100-  
CENTRAL  
 
 
CITY SKY/WX TMP DP RH WIND PRES REMARKS
 
FULTON FAIR 62 58 86 VRB3 30.02F  
SYRACUSE CLOUDY 64 64 100 E6 30.04F  
ROME LGT RAIN 60 59 96 SE8 30.10S  
ELMIRA CLOUDY 67 62 84 CALM 30.04F  
BINGHAMTON CLOUDY 62 62 100 S6 30.11F  
MONTICELLO CLOUDY 57 57 100 CALM 30.19F FOG  

 
 
NYZ026>034-041>043-087-260100-  
NORTH  
 
 
CITY SKY/WX TMP DP RH WIND PRES REMARKS
 
WATERTOWN MOCLDY 66 62 87 S8 29.99F  
FORT DRUM NOT AVBL  
OGDENSBURG CLOUDY 64 60 90 S7 30.00F  
MASSENA MOCLDY 62 59 90 SE5 30.02F  
SARANAC LAKE CLOUDY 58 57 97 SW3 30.09S  
PLATTSBURGH CLOUDY 59 55 87 S14 30.10F  

 
 
NYZ001>004-010>016-019>021-085-260100-  
WEST  
 
 
CITY SKY/WX TMP DP RH WIND PRES REMARKS
 
NIAGARA FALLS FAIR 69 65 86 S9 29.93F  
BUFFALO MOCLDY 70 66 87 S13 29.95F  
DUNKIRK MOCLDY 71 67 87 SW9 29.96F  
JAMESTOWN CLOUDY 67 66 97 S8 30.02F FOG  
WELLSVILLE CLOUDY 67 65 93 S9 30.07F  
ROCHESTER CLOUDY 71 66 84 S6 29.98F  
PENN YAN FAIR 67 62 84 S9 30.03F  

 
 
KEY  
WCI = WIND CHILL INDEX  
VSB = VISIBILITY  
HX = HEAT INDEX  

 
 
 
CLICK HERE TO GO TO PREVIOUS BULLETINS.

The Nexlab NY Page
The Nexlab VT Page
The Nexlab MA Page
The Nexlab CT Page Main Text Page